timestamp,wind_dir_avg,wind_spd_avg,wind_spd_max_dir,wind_spd_gust,battery_voltage,lat,long
2023-07-18 00:04:00+00:00,216.0,6.73,227.0,8.93,12.65,47.59359,-54.27349
2023-07-18 00:14:01+00:00,222.0,7.99,234.0,10.66,12.41,47.59359,-54.27349
2023-07-18 00:24:01+00:00,220.0,7.77,235.0,11.15,12.41,47.59359,-54.27349
2023-07-18 00:34:01+00:00,227.0,8.94,234.0,11.06,12.41,47.59359,-54.27349
2023-07-18 00:44:01+00:00,208.0,6.95,220.0,8.12,12.41,47.59359,-54.27349
2023-07-18 00:54:01+00:00,188.0,5.59,223.0,7.65,12.41,47.59359,-54.27349
2023-07-18 01:04:01+00:00,315.0,0.01,213.0,0.0,12.41,47.59359,-54.27349
2023-07-18 01:14:00+00:00,206.0,6.05,213.0,7.08,12.41,47.59359,-54.27349
2023-07-18 01:24:00+00:00,211.0,6.37,213.0,7.72,12.41,47.59359,-54.27349
2023-07-18 01:34:00+00:00,215.0,7.19,233.0,11.43,12.41,47.59359,-54.27349
2023-07-18 01:44:00+00:00,210.0,6.98,230.0,9.6,12.41,47.59359,-54.27349
2023-07-18 01:54:00+00:00,209.0,7.22,220.0,8.54,12.41,47.59359,-54.27349
2023-07-18 02:04:00+00:00,233.0,10.25,235.0,12.22,12.41,47.59359,-54.27349
2023-07-18 02:14:00+00:00,219.0,6.59,234.0,9.62,12.41,47.59359,-54.27349
2023-07-18 02:24:00+00:00,222.0,6.31,245.0,10.39,12.41,47.59359,-54.27349
2023-07-18 02:34:00+00:00,231.0,7.73,242.0,11.03,12.41,47.59359,-54.27349
2023-07-18 02:44:00+00:00,225.0,7.12,242.0,11.34,12.41,47.59359,-54.27349
2023-07-18 02:54:00+00:00,220.0,6.41,235.0,10.19,12.41,47.59359,-54.27349
2023-07-18 03:04:00+00:00,216.0,4.83,221.0,5.79,12.41,47.59359,-54.27349
2023-07-18 03:14:00+00:00,212.0,4.72,209.0,5.86,12.41,47.59359,-54.27349
2023-07-18 03:24:00+00:00,221.0,7.63,236.0,11.49,12.41,47.59359,-54.27349
2023-07-18 03:34:00+00:00,219.0,6.09,234.0,7.84,12.41,47.59359,-54.27349
2023-07-18 03:44:00+00:00,231.0,8.64,237.0,11.4,12.41,47.59359,-54.27349
2023-07-18 03:54:00+00:00,211.0,5.71,221.0,6.74,12.41,47.59359,-54.27349
2023-07-18 04:04:00+00:00,218.0,5.6,218.0,6.71,12.41,47.59359,-54.27349
2023-07-18 04:14:00+00:00,217.0,6.9,223.0,8.75,12.41,47.59359,-54.27349
2023-07-18 04:24:00+00:00,218.0,6.48,233.0,9.99,12.41,47.59359,-54.27349
2023-07-18 04:34:00+00:00,227.0,8.25,239.0,11.61,12.41,47.59359,-54.27349
2023-07-18 04:44:00+00:00,226.0,9.56,236.0,12.0,12.41,47.59359,-54.27349
2023-07-18 04:54:00+00:00,211.0,7.26,231.0,10.9,12.41,47.59359,-54.27349
2023-07-18 05:04:00+00:00,210.0,5.68,211.0,6.32,12.41,47.59359,-54.27349
2023-07-18 05:14:01+00:00,207.0,5.44,201.0,6.15,12.33,47.59359,-54.27349
2023-07-18 05:24:01+00:00,204.0,5.76,202.0,6.4,12.33,47.59359,-54.27349
2023-07-18 05:34:01+00:00,204.0,5.88,201.0,6.84,12.33,47.59359,-54.27349
2023-07-18 05:44:01+00:00,205.0,6.14,207.0,7.13,12.33,47.59359,-54.27349
2023-07-18 05:54:01+00:00,206.0,6.64,204.0,7.32,12.33,47.59359,-54.27349
2023-07-18 06:04:01+00:00,211.0,6.35,226.0,8.02,12.33,47.59359,-54.27349
2023-07-18 06:14:00+00:00,209.0,6.12,203.0,6.84,12.25,47.59359,-54.27349
2023-07-18 06:24:00+00:00,206.0,5.36,208.0,6.32,12.25,47.59359,-54.27349
2023-07-18 06:34:00+00:00,204.0,6.15,207.0,7.17,12.25,47.59359,-54.27349
2023-07-18 06:44:00+00:00,203.0,6.69,201.0,7.53,12.25,47.59359,-54.27349
2023-07-18 06:54:00+00:00,205.0,6.96,224.0,8.32,12.25,47.59359,-54.27349
2023-07-18 07:04:00+00:00,206.0,7.33,210.0,7.99,12.25,47.59359,-54.27349
2023-07-18 07:14:01+00:00,207.0,6.64,216.0,7.87,12.25,47.59359,-54.27349
2023-07-18 07:24:01+00:00,203.0,7.37,210.0,8.61,12.25,47.59359,-54.27349
2023-07-18 07:34:01+00:00,213.0,8.19,228.0,10.35,12.25,47.59359,-54.27349
2023-07-18 07:44:01+00:00,218.0,8.89,231.0,11.98,12.25,47.59359,-54.27349
2023-07-18 07:54:01+00:00,212.0,7.45,229.0,10.1,12.25,47.59359,-54.27349
2023-07-18 08:04:01+00:00,213.0,8.3,232.0,11.77,12.25,47.59359,-54.27349
2023-07-18 08:14:00+00:00,209.0,7.69,230.0,10.19,12.25,47.59359,-54.27349
2023-07-18 08:24:00+00:00,209.0,8.0,228.0,10.93,12.25,47.59359,-54.27349
2023-07-18 08:34:00+00:00,214.0,8.82,230.0,11.73,12.25,47.59359,-54.27349
2023-07-18 08:44:00+00:00,224.0,11.11,229.0,12.86,12.25,47.59359,-54.27349
2023-07-18 08:54:00+00:00,223.0,10.66,230.0,12.53,12.25,47.59359,-54.27349
2023-07-18 09:04:00+00:00,219.0,10.34,228.0,12.44,12.25,47.59359,-54.27349
2023-07-18 09:14:01+00:00,219.0,10.15,230.0,12.91,12.41,47.59359,-54.27349
2023-07-18 09:24:01+00:00,219.0,10.26,228.0,12.5,12.41,47.59359,-54.27349
2023-07-18 09:34:01+00:00,220.0,10.4,231.0,12.97,12.41,47.59359,-54.27349
2023-07-18 09:44:01+00:00,224.0,10.38,227.0,12.33,12.41,47.59359,-54.27349
2023-07-18 09:54:01+00:00,225.0,10.66,233.0,12.56,12.41,47.59359,-54.27349
2023-07-18 10:04:01+00:00,227.0,9.62,231.0,11.62,12.41,47.59359,-54.27349
2023-07-18 10:14:01+00:00,227.0,10.84,232.0,12.52,13.13,47.59359,-54.27349
2023-07-18 10:24:01+00:00,230.0,11.38,233.0,12.95,13.13,47.59359,-54.27349
2023-07-18 10:34:01+00:00,232.0,10.8,233.0,12.15,13.13,47.59359,-54.27349
2023-07-18 10:44:01+00:00,233.0,11.62,233.0,12.82,13.13,47.59359,-54.27349
2023-07-18 10:54:01+00:00,232.0,12.51,231.0,13.42,13.13,47.59359,-54.27349
2023-07-18 11:04:01+00:00,232.0,11.86,232.0,13.18,13.13,47.59359,-54.27349
2023-07-18 11:14:01+00:00,226.0,9.44,232.0,11.98,13.29,47.59359,-54.27349
2023-07-18 11:24:01+00:00,214.0,7.76,227.0,10.22,13.29,47.59359,-54.27349
2023-07-18 11:34:01+00:00,210.0,7.67,222.0,9.46,13.29,47.59359,-54.27349
2023-07-18 11:44:01+00:00,208.0,7.75,230.0,10.66,13.29,47.59359,-54.27349
2023-07-18 11:54:01+00:00,212.0,7.83,227.0,10.74,13.29,47.59359,-54.27349
2023-07-18 12:04:01+00:00,218.0,8.88,232.0,11.91,13.29,47.59359,-54.27349
2023-07-18 12:14:00+00:00,219.0,9.25,232.0,11.54,13.53,47.59359,-54.27349
2023-07-18 12:24:00+00:00,212.0,8.21,231.0,11.51,13.53,47.59359,-54.27349
2023-07-18 12:34:00+00:00,206.0,8.03,208.0,9.32,13.53,47.59359,-54.27349
2023-07-18 12:44:00+00:00,219.0,10.03,228.0,12.03,13.53,47.59359,-54.27349
2023-07-18 12:54:00+00:00,227.0,11.02,227.0,12.4,13.53,47.59359,-54.27349
2023-07-18 13:04:00+00:00,228.0,10.91,232.0,12.26,13.53,47.59359,-54.27349
2023-07-18 13:14:00+00:00,216.0,7.75,227.0,10.03,13.68,47.59359,-54.27349
2023-07-18 13:24:00+00:00,209.0,8.04,222.0,9.71,13.68,47.59359,-54.27349
2023-07-18 13:34:00+00:00,211.0,8.32,224.0,10.46,13.68,47.59359,-54.27349
2023-07-18 13:44:00+00:00,219.0,9.02,229.0,11.44,13.68,47.59359,-54.27349
2023-07-18 13:54:00+00:00,226.0,10.44,231.0,11.98,13.68,47.59359,-54.27349
2023-07-18 14:04:00+00:00,227.0,10.14,232.0,12.09,13.68,47.59359,-54.27349
2023-07-18 14:14:00+00:00,217.0,9.02,231.0,11.55,14.24,47.59359,-54.27349
2023-07-18 14:24:00+00:00,214.0,8.96,229.0,11.55,14.24,47.59359,-54.27349
2023-07-18 14:34:00+00:00,212.0,8.99,224.0,11.01,14.24,47.59359,-54.27349
2023-07-18 14:44:00+00:00,228.0,12.23,230.0,13.56,14.24,47.59359,-54.27349
2023-07-18 14:54:00+00:00,224.0,11.73,227.0,12.86,14.24,47.59359,-54.27349
2023-07-18 15:04:00+00:00,219.0,10.3,229.0,12.29,14.24,47.59359,-54.27349
2023-07-18 15:14:00+00:00,207.0,8.49,219.0,10.58,14.32,47.59359,-54.27349
2023-07-18 15:24:00+00:00,204.0,8.5,218.0,10.03,14.32,47.59359,-54.27349
2023-07-18 15:34:00+00:00,200.0,8.48,206.0,9.8,14.32,47.59359,-54.27349
2023-07-18 15:44:00+00:00,209.0,10.22,221.0,11.82,14.32,47.59359,-54.27349
2023-07-18 15:54:00+00:00,219.0,10.9,224.0,12.8,14.32,47.59359,-54.27349
2023-07-18 16:04:00+00:00,221.0,10.34,227.0,11.89,14.32,47.59359,-54.27349
2023-07-18 16:14:00+00:00,224.0,12.19,227.0,13.48,14.32,47.59359,-54.27349
2023-07-18 16:24:00+00:00,222.0,12.02,224.0,13.19,14.32,47.59359,-54.27349
2023-07-18 16:34:00+00:00,222.0,11.27,225.0,12.91,14.32,47.59359,-54.27349
2023-07-18 16:44:00+00:00,215.0,9.97,223.0,12.36,14.32,47.59359,-54.27349
2023-07-18 16:54:00+00:00,222.0,12.5,226.0,13.92,14.32,47.59359,-54.27349
2023-07-18 17:04:00+00:00,226.0,12.47,229.0,13.66,14.32,47.59359,-54.27349
2023-07-18 17:14:01+00:00,215.0,9.9,225.0,12.24,14.32,47.59359,-54.27349
2023-07-18 17:24:01+00:00,220.0,11.37,227.0,13.07,14.32,47.59359,-54.27349
2023-07-18 17:34:01+00:00,208.0,9.76,222.0,11.7,14.32,47.59359,-54.27349
2023-07-18 17:44:01+00:00,222.0,11.73,228.0,13.5,14.32,47.59359,-54.27349
2023-07-18 17:54:01+00:00,219.0,11.77,222.0,14.1,14.32,47.59359,-54.27349
2023-07-18 18:04:01+00:00,216.0,10.72,225.0,13.47,14.32,47.59359,-54.27349
2023-07-18 18:14:00+00:00,221.0,12.36,225.0,13.74,13.92,47.59359,-54.27349
2023-07-18 18:24:00+00:00,220.0,11.8,225.0,13.72,13.92,47.59359,-54.27349
2023-07-18 18:34:00+00:00,221.0,12.39,225.0,14.04,13.92,47.59359,-54.27349
2023-07-18 18:44:00+00:00,222.0,12.56,222.0,13.83,13.92,47.59359,-54.27349
2023-07-18 18:54:00+00:00,222.0,12.02,220.0,13.93,13.92,47.59359,-54.27349
2023-07-18 19:04:00+00:00,219.0,12.23,223.0,14.56,13.92,47.59359,-54.27349
2023-07-18 19:14:00+00:00,220.0,11.42,222.0,13.36,13.6,47.59359,-54.27349
2023-07-18 19:24:00+00:00,216.0,9.55,225.0,11.43,13.6,47.59359,-54.27349
2023-07-18 19:34:00+00:00,215.0,10.03,223.0,11.33,13.6,47.59359,-54.27349
2023-07-18 19:44:00+00:00,218.0,11.14,226.0,13.05,13.6,47.59359,-54.27349
2023-07-18 19:54:00+00:00,215.0,10.9,225.0,12.93,13.6,47.59359,-54.27349
2023-07-18 20:04:00+00:00,217.0,11.27,222.0,13.03,13.6,47.59359,-54.27349
2023-07-18 20:14:00+00:00,222.0,12.4,227.0,13.9,13.68,47.59359,-54.27349
2023-07-18 20:24:00+00:00,215.0,9.93,221.0,11.87,13.68,47.59359,-54.27349
2023-07-18 20:34:00+00:00,216.0,8.49,220.0,9.77,13.68,47.59359,-54.27349
2023-07-18 20:44:00+00:00,218.0,9.18,221.0,10.07,13.68,47.59359,-54.27349
2023-07-18 20:54:00+00:00,215.0,7.47,216.0,8.41,13.68,47.59359,-54.27349
2023-07-18 21:04:00+00:00,213.0,8.48,218.0,9.35,13.68,47.59359,-54.27349
2023-07-18 21:14:00+00:00,208.0,8.96,223.0,11.51,13.53,47.59359,-54.27349
2023-07-18 21:24:00+00:00,212.0,6.82,213.0,8.02,13.53,47.59359,-54.27349
2023-07-18 21:34:00+00:00,216.0,8.94,219.0,10.21,13.53,47.59359,-54.27349
2023-07-18 21:44:00+00:00,216.0,7.99,219.0,8.94,13.53,47.59359,-54.27349
2023-07-18 21:54:00+00:00,213.0,7.86,216.0,8.71,13.53,47.59359,-54.27349
2023-07-18 22:04:00+00:00,210.0,8.93,216.0,9.78,13.53,47.59359,-54.27349
2023-07-18 22:14:00+00:00,211.0,8.11,214.0,8.9,13.29,47.59359,-54.27349
2023-07-18 22:24:00+00:00,206.0,8.0,205.0,9.07,13.29,47.59359,-54.27349
2023-07-18 22:34:00+00:00,202.0,7.75,207.0,8.56,13.29,47.59359,-54.27349
2023-07-18 22:44:00+00:00,199.0,7.23,196.0,8.01,13.29,47.59359,-54.27349
2023-07-18 22:54:00+00:00,204.0,8.28,215.0,10.06,13.29,47.59359,-54.27349
2023-07-18 23:04:00+00:00,204.0,7.92,207.0,8.69,13.29,47.59359,-54.27349
2023-07-18 23:14:00+00:00,204.0,8.01,214.0,8.97,12.81,47.59359,-54.27349
2023-07-18 23:24:00+00:00,198.0,7.03,197.0,7.76,12.81,47.59359,-54.27349
2023-07-18 23:34:00+00:00,195.0,6.9,197.0,7.89,12.81,47.59359,-54.27349
2023-07-18 23:44:00+00:00,194.0,7.21,196.0,7.82,12.81,47.59359,-54.27349
2023-07-18 23:54:00+00:00,189.0,7.62,192.0,8.22,12.81,47.59359,-54.27349
